Location: Nianha
(10.8000°N, 4.6333°W)
Time: 21:51:21
(UTC+00:00)

STARLINK-40 - Pass Details

Date: 14 November 2019
Orbit: 529 x 530 km, 53.0° (Epoch: 29 January)

Event Time Altitude Azimuth Distance (km) Brightness Sun altitude
Exits shadow 03:01:39 -1° 95° (E) 2,811 8.0 -46.2°
Enters shadow 04:15:16 -38° 216° (SW) 8,588 9.7 -28.7°
Maximum altitude 04:37:25 69° 124° (SE) 560 3.7 -23.5°
